TimeEDT,TemperatureF,Dew PointF,Humidity,Sea Level PressureIn,VisibilityMPH,Wind Direction,Wind SpeedMPH,Gust SpeedMPH,PrecipitationIn,Events,Conditions,WindDirDegrees,DateUTC
12:56 AM,57.0,55.0,93,30.10,6.0,Calm,Calm,-,N/A,,Overcast,0,2012-10-24 04:56:00
1:56 AM,55.9,54.0,93,30.09,6.0,NE,6.9,-,0.00,Rain,Light Rain,40,2012-10-24 05:56:00
2:56 AM,55.9,54.0,93,30.09,6.0,NE,8.1,-,0.02,,Overcast,50,2012-10-24 06:56:00
3:08 AM,55.4,53.6,94,30.09,6.0,NE,4.6,-,N/A,,Overcast,50,2012-10-24 07:08:00
3:56 AM,55.9,54.0,93,30.09,6.0,NE,4.6,-,N/A,,Overcast,50,2012-10-24 07:56:00
4:34 AM,55.4,53.6,94,30.09,4.0,NE,4.6,-,N/A,,Overcast,50,2012-10-24 08:34:00
4:56 AM,55.9,54.0,93,30.10,4.0,NE,3.5,-,N/A,,Overcast,50,2012-10-24 08:56:00
5:56 AM,55.9,54.0,93,30.11,2.0,Calm,Calm,-,N/A,,Overcast,0,2012-10-24 09:56:00
6:56 AM,55.9,54.0,93,30.12,2.0,East,4.6,-,N/A,,Overcast,80,2012-10-24 10:56:00
7:56 AM,55.0,53.1,93,30.13,3.0,ENE,5.8,-,N/A,,Overcast,60,2012-10-24 11:56:00
8:39 AM,55.4,53.6,94,30.14,7.0,NE,4.6,-,N/A,,Overcast,40,2012-10-24 12:39:00
8:56 AM,55.0,53.1,93,30.14,5.0,NE,3.5,-,0.01,Rain,Light Rain,50,2012-10-24 12:56:00
9:56 AM,57.0,54.0,89,30.13,7.0,NE,6.9,-,0.00,,Overcast,40,2012-10-24 13:56:00
10:21 AM,57.2,53.6,88,30.14,10.0,NE,5.8,-,N/A,,Overcast,40,2012-10-24 14:21:00
10:56 AM,57.9,54.0,87,30.13,10.0,ENE,6.9,-,N/A,,Overcast,70,2012-10-24 14:56:00
11:56 AM,59.0,54.0,83,30.12,10.0,ENE,5.8,-,0.00,,Overcast,70,2012-10-24 15:56:00
12:36 PM,57.2,51.8,82,30.11,10.0,NE,9.2,-,N/A,,Overcast,50,2012-10-24 16:36:00
12:56 PM,57.9,52.0,81,30.11,10.0,NNE,9.2,-,N/A,,Overcast,30,2012-10-24 16:56:00
1:56 PM,57.9,51.1,78,30.11,10.0,NNE,10.4,-,N/A,,Overcast,30,2012-10-24 17:56:00
2:29 PM,57.2,51.8,82,30.11,10.0,NE,5.8,-,N/A,,Overcast,50,2012-10-24 18:29:00
2:56 PM,57.9,50.0,75,30.11,10.0,ENE,8.1,-,N/A,,Overcast,70,2012-10-24 18:56:00
3:56 PM,57.9,51.1,78,30.11,10.0,East,3.5,-,0.00,Rain,Light Rain,80,2012-10-24 19:56:00
4:56 PM,57.0,50.0,77,30.12,10.0,ENE,4.6,-,0.00,,Overcast,60,2012-10-24 20:56:00
5:56 PM,57.0,50.0,77,30.14,10.0,East,4.6,-,N/A,,Overcast,90,2012-10-24 21:56:00
6:56 PM,55.9,50.0,80,30.16,10.0,ENE,4.6,-,N/A,,Overcast,70,2012-10-24 22:56:00
7:56 PM,55.9,48.9,77,30.17,10.0,NE,5.8,-,N/A,,Overcast,50,2012-10-24 23:56:00
9:56 PM,55.0,50.0,83,30.19,10.0,Calm,Calm,-,0.00,,Overcast,0,2012-10-25 01:56:00
10:56 PM,55.0,48.9,80,30.19,10.0,NE,5.8,-,N/A,,Overcast,50,2012-10-25 02:56:00
11:56 PM,54.0,50.0,86,30.20,10.0,NE,3.5,-,0.00,,Overcast,40,2012-10-25 03:56:00